EMGATE Weather Reports


time (UTC)temp
C
wind
direction
speed
KPH
gust
KPH
rain 1hr
cm
rain 24hr
cm
rain mn
cm
humidity
%
barometer
mb
20260504110414 0 34 0.0 3.2 0.00 0.00 0.00 80 1004.7
20260504100415 -1 9 0.0 1.6 0.00 0.00 0.00 84 1005.1
20260504081915 -2 11 0.0 0.0 0.00 0.00 0.00 83 1005.4
20260504080415 -2 11 0.0 0.0 0.00 0.00 0.00 82 1005.5
20260504050415 0 118 0.0 0.0 0.00 0.00 0.00 78 1005.8
20260504044915 0 118 0.0 0.0 0.00 0.00 0.00 78 1006.0
20260504043415 0 118 0.0 1.6 0.00 0.00 0.00 78 1006.2
20260504041915 0 195 0.0 0.0 0.00 0.00 0.00 76 1006.3
20260504040415 0 195 0.0 0.0 0.00 0.00 0.00 75 1006.2
20260504034915 1 195 0.0 0.0 0.00 0.00 0.00 74 1006.3
20260504033415 1 195 0.0 0.0 0.00 0.00 0.00 73 1006.3
20260504031915 1 195 0.0 0.0 0.00 0.00 0.00 73 1006.3
20260504030415 1 195 0.0 0.0 0.00 0.00 0.00 72 1006.4
20260504024915 2 195 0.0 0.0 0.00 0.00 0.00 72 1006.4
20260504023415 2 195 0.0 0.0 0.00 0.00 0.00 71 1006.3
20260504021915 2 195 0.0 0.0 0.00 0.00 0.00 70 1006.6
20260504020415 3 195 0.0 0.0 0.00 0.00 0.00 69 1006.7
20260504014915 3 195 0.0 0.0 0.00 0.00 0.00 67 1006.9
20260504013415 4 195 0.0 0.0 0.00 0.00 0.00 66 1006.7
20260504011915 5 195 0.0 0.0 0.00 0.00 0.00 63 1006.8
20260504010415 5 195 0.0 0.0 0.00 0.00 0.00 60 1006.8
20260504004915 6 195 0.0 0.0 0.00 0.00 0.00 58 1006.7
20260504003415 6 195 0.0 0.0 0.00 0.00 0.00 57 1006.6
20260504001915 7 195 0.0 0.0 0.00 0.00 0.00 54 1006.5
20260504000416 7 195 0.0 0.0 0.00 0.00 0.00 52 1006.5
20260503234915 7 193 0.0 0.0 0.00 0.00 0.00 52 1006.5
20260503233415 8 193 0.0 0.0 0.00 0.00 0.00 49 1006.3
20260503231915 8 193 0.0 0.0 0.00 0.00 0.00 46 1006.3
20260503230415 8 174 0.0 0.0 0.00 0.00 0.00 44 1006.5
20260503224915 8 172 0.0 0.0 0.00 0.00 0.00 44 1006.5
20260503223415 8 186 1.6 4.8 0.00 0.00 0.00 43 1006.4
20260503221915 8 200 0.0 0.0 0.00 0.05 0.00 45 1006.3
20260503220415 8 175 0.0 3.2 0.00 0.05 0.00 45 1006.5
20260503214915 9 206 1.6 6.4 0.00 0.05 0.00 44 1006.4
20260503213415 9 174 1.6 6.4 0.00 0.05 0.00 45 1006.6
20260503211915 10 256 1.6 4.8 0.00 0.05 0.00 44 1006.6
20260503210415 9 181 1.6 4.8 0.00 0.05 0.00 44 1006.6
20260503204915 10 230 3.2 9.7 0.00 0.05 0.00 45 1006.6
20260503203415 10 320 3.2 6.4 0.00 0.05 0.00 40 1006.6
20260503201915 10 303 8.0 11.3 0.00 0.05 0.00 38 1006.7
20260503200415 10 245 8.0 17.7 0.00 0.05 0.00 39 1006.7
20260503194915 9 306 4.8 11.3 0.00 0.05 0.00 42 1006.9
20260503193415 8 294 4.8 16.1 0.00 0.05 0.00 45 1007.1
20260503191915 8 266 9.7 17.7 0.00 0.05 0.00 43 1007.2
20260503190415 8 221 4.8 8.0 0.00 0.05 0.00 49 1007.3
20260503184915 8 235 6.4 11.3 0.00 0.05 0.00 49 1007.4
20260503183415 8 239 6.4 9.7 0.00 0.05 0.00 51 1007.6
20260503181915 8 234 4.8 11.3 0.00 0.05 0.00 47 1007.7
20260503180415 9 184 6.4 12.9 0.00 0.05 0.00 47 1007.8
20260503174915 8 203 4.8 12.9 0.00 0.05 0.00 50 1008.0
20260503173415 8 243 8.0 17.7 0.00 0.05 0.00 48 1008.1
20260503171915 9 255 6.4 12.9 0.00 0.05 0.00 45 1008.1
20260503170415 8 359 6.4 16.1 0.00 0.05 0.00 48 1008.4
20260503150415 10 215 4.8 12.9 0.00 0.05 0.00 45 1009.9
20260503130415 7 27 6.4 9.7 0.00 0.05 0.00 54 1011.3